Location: Borbetomagus
(49.6328°N, 8.3592°E)
Time: 22:02:54
(UTC+00:00)

PSLV R/B - Pass Details

Date: 19 May 2025
Orbit: 586 x 683 km, 97.9° (Epoch: 15 June)

Event Time Altitude Azimuth Distance (km) Brightness Sun altitude
Rises 22:40:05 0° 19° (NNE) 2,847 8.0 -19.7°
Reaches altitude 10° 22:42:22 10° 26° (NNE) 1,932 6.8 -19.8°
Maximum altitude 22:46:20 42° 98° (E) 849 4.1 -19.9°
Enters shadow 22:46:54 39° 120° (ESE) 883 4.0 -19.9°
